Anchorage Merrill, AK

8:56 AM AKDT on July 25, 2017 (GMT -0800)
Merrill

Weather History for PAMR - March, 2012

Change the Weather History Date:

Saturday, March 24, 2012

  Actual Average Record
Temperature  
Mean Temperature 29 °F -  
Max Temperature 37 °F 33 °F 54 °F (2016)
Min Temperature 21 °F 18 °F 6 °F (2007)
Degree Days  
Heating Degree Days 36    
Moisture  
Dew Point 20 °F    
Average Humidity 74    
Maximum Humidity 89    
Minimum Humidity 57    
Precipitation  
Precipitation 0.00 in - - ()
Snow  
Snow 0.00 in - - ()
Snow Depth 26.00 in    
Sea Level Pressure  
Sea Level Pressure 29.91 in    
Wind  
Wind Speed 4 mph (North)    
Max Wind Speed 7 mph    
Max Gust Speed -    
Visibility 10 miles    
Events      
Averages and records for this station are not official NWS values.
T = Trace of Precipitation, MM = Missing Value Source: NWS Daily Summary

Daily Weather History Graph

Daily Weather History Graph

Search for Another Location

Airport or City:

Trip Planner

Search our weather history database for the weather conditions in past years. The results will help you decide how hot, cold, wet, or windy it might be!

Date:

Astronomy

Mar. 24, 2012 Rise Set
Actual Time 7:45 AM AKDT 8:26 PM AKDT
Civil Twilight 7:02 AM AKDT 9:10 PM AKDT
Nautical Twilight 6:08 AM AKDT 10:04 PM AKDT
Astronomical Twilight 5:09 AM AKDT 11:04 PM AKDT
Moon 7:41 AM AKDT (3/24) 11:56 PM AKDT (3/24)
Length of Visible Light 14h 08m
Length of Day
12h 40m
Waxing Crescent, 5% of the Moon is Illuminated
Mar 24
Waxing Crescent
Mar 30
First Quarter
Apr 6
Full
Apr 13
Last Quarter
Apr 20
New

Hourly Weather History & Observations

Time (AKDT) Temp. Windchill Dew Point Humidity Pressure Visibility Wind Dir Wind Speed Gust Speed Precip Events Conditions
12:53 AM 24.1 °F 16.0 °F 19.0 °F 81% 29.92 in 10.0 mi North 6.9 mph - N/A   Overcast
1:53 AM 24.1 °F 19.7 °F 19.0 °F 81% 29.93 in 10.0 mi North 3.5 mph - N/A   Overcast
2:53 AM 23.0 °F 15.8 °F 19.0 °F 85% 29.94 in 10.0 mi North 5.8 mph - N/A   Mostly Cloudy
3:53 AM 23.0 °F 18.4 °F 19.0 °F 85% 29.94 in 10.0 mi NNE 3.5 mph - N/A   Mostly Cloudy
4:53 AM 23.0 °F 17.0 °F 19.0 °F 85% 29.93 in 10.0 mi North 4.6 mph - N/A   Scattered Clouds
5:53 AM 21.9 °F 14.5 °F 19.0 °F 89% 29.92 in 10.0 mi North 5.8 mph - N/A   Scattered Clouds
6:53 AM 21.9 °F 15.7 °F 19.0 °F 89% 29.92 in 10.0 mi NNW 4.6 mph - N/A   Overcast
7:53 AM 21.0 °F 16.2 °F 18.0 °F 88% 29.92 in 10.0 mi NE 3.5 mph - N/A   Mostly Cloudy
8:53 AM 21.9 °F - 19.0 °F 89% 29.93 in 10.0 mi Calm Calm - N/A   Overcast
9:53 AM 23.0 °F - 19.0 °F 85% 29.93 in 10.0 mi Calm Calm - N/A   Mostly Cloudy
10:53 AM 25.0 °F 19.3 °F 19.9 °F 81% 29.94 in 10.0 mi North 4.6 mph - N/A   Mostly Cloudy
11:53 AM 28.0 °F 22.8 °F 19.9 °F 72% 29.93 in 10.0 mi NNE 4.6 mph - N/A   Clear
12:53 PM 30.0 °F - 19.9 °F 66% 29.93 in 10.0 mi Calm Calm - N/A   Scattered Clouds
1:53 PM 34.0 °F 28.8 °F 21.0 °F 59% 29.92 in 10.0 mi North 5.8 mph - 0.00 in   Clear
2:53 PM 35.1 °F 29.3 °F 21.0 °F 57% 29.91 in 10.0 mi North 6.9 mph - N/A   Clear
3:53 PM 36.0 °F 30.3 °F 23.0 °F 59% 29.90 in 10.0 mi North 6.9 mph - N/A   Clear
4:53 PM 37.0 °F 32.4 °F 23.0 °F 57% 29.89 in 10.0 mi NNE 5.8 mph - N/A   Clear
5:53 PM 37.0 °F 32.4 °F 23.0 °F 57% 29.88 in 10.0 mi North 5.8 mph - N/A   Clear
6:53 PM 37.0 °F 33.3 °F 23.0 °F 57% 29.87 in 10.0 mi North 4.6 mph - N/A   Clear
7:53 PM 35.1 °F 32.2 °F 23.0 °F 61% 29.87 in 10.0 mi NE 3.5 mph - N/A   Clear
8:53 PM 32.0 °F - 23.0 °F 69% 29.88 in 10.0 mi Calm Calm - N/A   Clear
9:53 PM 30.0 °F - 23.0 °F 75% 29.88 in 10.0 mi Calm Calm - N/A   Mostly Cloudy
10:53 PM 28.0 °F - 19.9 °F 72% 29.88 in 10.0 mi Calm Calm - N/A   Partly Cloudy
11:53 PM 28.0 °F - 19.0 °F 69% 29.87 in 10.0 mi Calm Calm - N/A   Clear